{"data":{"norad_id":62140,"intl_designator":"2024-224B","name":"STARLINK-32464","alt_names":[],"object_type":"PAYLOAD","status":"ACTIVE","operator":null,"country":"US","launch_date":"2024-11-30","launch_site_code":"AFETR","launch_vehicle":null,"mission":null,"orbit_class":"UNKNOWN","rcs_meters":null,"size_class":null,"mass_kg":null,"dimensions":null,"purposes":["comms"],"wikipedia_slug":null,"has_3d_model":false,"image_url":null,"decayed_at":null,"tle_current":{"epoch":"2026-05-25T02:36:38.077056Z","epoch_age_seconds":72606,"freshness":"FRESH","line1":"1 62140U 24224B   26145.10877404  .00014850  00000+0  54783-3 0  9993","line2":"2 62140  43.0007  86.8476 0001275 272.9543  87.1163 15.27595686 84108","mean_motion":15.27595686,"eccentricity":0.0001275,"inclination_deg":43.0007,"raan_deg":86.8476,"arg_perigee_deg":272.9543,"mean_anomaly_deg":87.1163,"bstar":0.00054783,"rev_number":8410,"period_min":94.265780742719,"perigee_km":482.12733167588,"apogee_km":483.87692215325,"semimajor_km":6861.1391269146,"source":"CELESTRAK","updated_at":"2026-05-25T13:38:19.568716Z"}}}